Theta_e
328 328 327 326 326 326 325 324 323 323 322 321 322 322 322 321 321 321 319 317 315 317 318 318 319 324 321 323 326 326 325 326 324 326 334 341 336 332 332 331 327 325 321
327 326 325 326 326 325 324 323 323 321 321 322 322 321 320 320 320 318 316 314 314 314 313 314 315 317 322 325 323 325 325 329 327 328 331 337 331 331 331 325 323 322 319
325 324 325 324 324 324 324 323 321 320 320 320 320 320 319 318 316 317 316 315 315 315 313 314 313 314 315 317 322 323 325 325 327 327 328 336 333 329 326 323 321 318 319
324 323 323 324 323 322 321 320 319 319 319 319 319 319 319 317 315 317 316 316 315 315 316 315 315 314 314 315 317 320 324 325 325 325 325 330 327 328 323 316 314 313 313
322 322 322 323 322 320 318 317 317 317 317 318 318 317 316 315 314 317 316 314 313 314 315 315 316 317 315 315 314 318 317 321 323 323 324 331 324 320 316 315 312 310 310
322 320 321 320 318 317 316 316 315 315 315 315 314 312 313 314 308 307 311 312 314 313 311 313 314 315 315 311 310 310 312 311 310 322 324 321 323 319 316 314 310 306 303
321 319 318 317 315 314 314 314 313 314 313 310 310 310 310 312 305 303 305 311 311 311 310 310 310 311 312 313 310 308 309 308 308 312 314 321 324 320 317 312 310 309 308
319 317 316 314 313 313 313 313 313 311 309 308 308 310 310 311 304 301 302 308 309 308 310 309 309 309 310 311 311 310 312 315 314 310 312 315 319 322 319 316 312 312 312
316 315 314 312 311 311 311 311 310 307 308 308 308 307 308 309 303 301 302 307 307 309 309 309 310 309 306 303 307 307 309 314 314 309 309 309 309 309 316 315 311 308 306
314 313 312 311 311 309 308 308 307 305 306 306 306 308 306 307 304 299 301 306 305 308 310 308 305 306 303 301 304 305 305 311 317 321 315 310 310 311 310 317 314 308 307
313 311 311 311 310 307 306 305 305 305 305 305 304 306 308 309 310 300 299 305 304 303 302 301 303 301 299 299 300 305 305 311 312 320 324 322 323 316 316 319 320 313 309
310 310 310 309 306 306 305 305 305 304 303 303 304 306 306 310 304 302 298 297 299 298 298 299 301 298 297 297 299 300 300 303 313 319 323 322 320 316 316 319 322 317 317
309 307 306 306 307 307 305 304 303 304 303 303 301 299 301 302 304 299 297 296 296 297 298 298 297 296 296 297 297 299 299 306 312 316 318 322 320 318 318 318 319 317 317
306 306 307 306 305 305 304 304 303 302 300 298 298 296 296 296 297 298 299 297 296 296 297 297 297 296 296 298 300 300 303 306 309 314 318 321 320 317 316 317 315 313 311
304 305 305 305 304 303 303 303 302 302 299 297 295 295 293 293 295 295 293 293 294 294 293 294 295 296 295 297 301 302 304 306 307 313 321 318 316 316 317 317 313 313 308
304 303 303 302 302 302 301 302 299 295 294 293 292 292 295 294 293 292 292 291 291 292 297 302 298 297 296 296 299 302 304 305 308 316 322 318 316 316 315 315 314 312 307
302 302 301 301 301 300 300 299 298 298 295 294 293 292 292 292 292 291 291 292 293 296 306 311 316 305 300 298 303 304 304 307 314 322 319 317 317 317 313 313 312 309 307
302 295 300 300 299 299 299 299 298 295 293 294 294 293 293 292 291 291 292 295 299 300 303 308 316 311 311 309 309 311 310 312 318 319 318 318 317 315 314 311 310 307 306
301 300 299 299 299 298 299 298 296 294 292 292 293 294 294 293 292 293 294 298 297 297 300 304 312 317 320 321 318 319 317 317 318 318 318 318 317 315 313 312 309 303 303
301 293 295 297 298 298 297 295 294 292 292 291 291 292 294 292 295 295 296 297 297 297 299 302 309 317 325 329 325 323 320 318 319 319 318 318 318 317 313 312 309 306 307
302 301 290 298 298 296 294 293 293 292 291 291 292 293 288 291 294 295 295 296 297 298 298 301 306 312 321 324 323 320 320 319 319 318 318 317 317 314 315 313 311 310 309
302 301 300 298 297 294 293 293 293 292 291 291 292 293 290 294 295 295 296 297 298 300 300 300 302 310 314 321 319 319 319 318 318 318 317 317 316 315 314 313 311 311 309
303 301 300 298 295 292 292 292 292 291 291 292 292 292 293 293 294 295 296 297 298 299 300 299 300 302 311 314 320 321 319 318 319 318 317 317 316 314 313 311 311 308 307
303 301 300 298 296 294 293 293 293 291 291 292 292 292 293 293 294 295 296 298 299 299 299 299 299 299 302 307 310 312 320 320 320 319 319 317 316 310 312 311 310 308 308
303 302 299 298 296 295 294 294 295 294 293 292 292 292 293 294 295 296 296 298 299 299 298 298 297 299 298 299 299 301 293 292 313 306 319 318 315 313 311 311 309 308 307
303 302 300 298 296 294 293 294 294 294 293 293 293 293 294 295 296 297 297 298 300 299 298 298 297 296 298 297 295 291 290 291 300 295 313 314 313 311 311 309 309 306 305
Wind_Speed
14 12 12 10 10 9 9 10 11 11 12 13 13 14 14 14 13 11 11 12 15 14 13 14 17 15 13 13 12 12 12 12 13 10 7 9 7 8 11 10 16 13 11
13 12 12 10 10 10 10 11 12 13 13 13 14 14 15 15 14 14 15 14 15 15 14 16 18 14 16 14 13 16 14 12 12 14 11 6 4 10 13 14 13 11 11
13 13 11 11 11 11 11 11 12 13 14 14 14 15 15 13 14 16 15 15 15 16 17 15 15 16 16 15 15 14 13 13 13 10 10 4 4 8 8 12 13 13 10
11 11 9 10 10 11 11 12 13 14 14 15 15 16 12 13 16 17 16 15 16 16 18 18 19 16 16 16 16 16 15 13 13 9 9 2 5 10 12 12 10 9 12
11 10 10 9 10 11 12 13 13 13 14 16 16 13 13 14 14 17 17 16 17 17 16 18 18 21 23 18 13 15 15 14 13 12 12 5 7 9 12 9 11 11 9
10 10 10 11 11 12 12 13 13 14 14 15 16 16 16 14 17 17 19 16 18 16 15 16 18 24 22 25 24 25 23 15 15 13 13 11 11 12 12 13 11 13 8
10 10 11 11 12 12 12 13 14 14 13 14 14 16 19 18 19 18 18 16 17 17 17 18 16 14 20 20 22 27 28 29 22 17 17 11 12 17 15 15 17 17 10
10 11 11 11 11 11 12 13 13 12 13 14 17 18 18 15 20 18 20 19 18 20 20 19 20 20 20 19 19 18 19 21 21 16 19 17 13 17 21 19 17 11 9
10 10 9 9 11 12 13 13 13 13 15 16 16 17 18 18 20 19 18 15 17 18 21 20 20 21 25 26 21 19 19 19 18 20 21 16 14 17 21 13 12 14 10
8 7 7 9 10 12 12 14 13 14 15 16 18 18 20 21 22 17 16 14 18 16 18 18 24 25 26 23 21 20 19 18 18 18 18 14 11 17 24 22 18 15 14
3 6 7 9 8 10 12 12 12 14 16 17 17 18 19 19 19 19 19 14 13 13 14 15 16 24 22 23 26 20 20 17 20 16 14 15 14 13 15 17 18 17 16
5 6 7 8 8 9 12 12 14 14 16 17 17 16 14 15 17 15 15 17 20 16 20 17 19 26 23 24 23 30 22 19 13 14 14 12 13 15 14 14 18 16 15
5 6 7 9 9 9 11 12 12 13 12 14 13 14 16 15 15 23 25 25 27 19 17 24 33 30 27 23 29 29 27 15 16 16 11 14 13 16 18 16 15 14 9
4 6 7 8 7 10 9 10 10 11 11 12 11 13 14 14 14 13 13 15 24 21 24 21 25 29 28 21 20 22 17 16 17 15 11 9 13 16 15 13 12 13 9
4 6 7 7 8 10 10 9 10 11 9 13 12 12 13 15 15 23 24 20 18 22 26 18 15 13 16 15 15 16 16 16 17 14 13 12 14 15 14 14 14 14 9
5 5 6 7 7 9 10 11 8 4 12 16 20 16 12 20 30 31 34 36 35 34 14 13 11 12 14 15 16 15 16 18 17 16 13 13 16 17 14 14 15 14 15
5 6 7 6 7 9 10 11 12 11 16 15 15 17 19 24 28 29 31 31 27 21 11 13 2 6 11 14 16 15 15 15 17 15 12 13 16 15 18 15 15 14 14
4 7 7 7 8 9 10 10 11 11 13 15 13 17 20 24 28 28 25 23 15 13 11 12 6 7 11 14 16 14 15 15 16 15 14 16 16 16 17 17 15 17 15
5 6 8 7 7 9 10 11 10 10 11 11 13 13 16 26 24 19 19 11 12 13 14 13 9 4 12 14 14 16 17 16 16 16 16 16 16 17 17 16 15 18 18
5 3 5 6 7 9 10 10 9 10 10 10 10 12 15 17 15 15 14 13 12 12 13 12 10 4 6 11 14 14 14 15 19 15 15 15 16 16 16 16 16 17 16
2 3 2 5 7 9 8 8 8 9 9 10 10 11 17 11 11 12 13 13 13 13 14 13 12 7 3 8 12 12 14 14 14 15 15 15 15 14 15 15 17 16 15
2 6 5 5 7 8 8 8 8 9 10 10 11 12 17 11 12 13 13 14 13 12 11 12 11 9 6 7 9 13 13 13 13 14 14 14 14 14 14 14 15 14 15
5 7 6 6 6 6 8 8 8 9 10 10 11 12 13 12 13 13 13 13 13 13 13 13 13 11 9 9 6 9 11 11 12 13 14 14 13 14 14 15 15 15 16
4 8 7 6 7 7 7 8 8 10 11 11 12 12 12 12 13 14 14 13 14 14 15 14 13 17 12 10 9 7 7 10 11 13 16 14 14 14 14 15 14 17 15
5 10 7 8 6 7 9 10 11 10 10 11 11 12 12 12 13 14 14 14 14 15 16 16 15 18 18 19 15 15 15 12 9 10 10 14 16 18 15 13 15 14 16
6 10 9 8 7 8 8 9 9 9 9 10 11 11 12 13 12 13 13 15 14 14 17 14 18 22 21 16 17 17 15 14 13 12 8 10 13 12 12 15 20 14 18
Wind_Direction
200 206 214 225 231 241 255 266 273 277 276 274 274 274 274 274 272 267 259 260 273 280 280 272 269 272 273 271 271 258 254 262 270 265 244 176 162 147 168 149 144 147 149
200 208 221 225 236 249 259 268 276 277 278 275 274 274 274 275 276 268 266 264 268 266 261 258 266 269 267 263 263 271 282 275 261 268 266 149 156 180 162 144 146 142 145
206 213 217 233 242 252 263 270 274 277 277 276 275 274 277 277 269 264 262 260 254 257 262 260 259 256 264 268 269 271 255 253 268 274 272 116 141 150 151 143 147 140 141
225 228 241 246 255 266 276 278 278 277 278 277 275 276 276 269 263 262 263 260 255 252 255 257 258 248 250 259 266 267 270 267 260 256 249 176 150 159 150 142 140 141 142
228 236 245 255 261 268 276 281 283 282 281 279 279 280 279 267 261 262 260 257 256 255 250 251 252 255 256 256 257 259 256 280 252 243 242 176 171 153 160 155 149 137 136
229 243 250 255 265 271 275 278 280 283 287 289 288 280 271 269 267 248 251 261 263 259 258 254 251 252 252 249 246 251 260 263 270 274 242 222 187 165 155 154 154 145 144
230 241 251 260 270 276 279 285 285 287 296 285 275 273 272 274 270 263 259 265 263 256 258 255 251 246 245 249 241 236 241 249 242 252 275 283 198 166 156 160 167 167 167
227 244 258 270 279 286 285 285 289 289 282 278 276 276 277 274 267 261 264 268 264 264 256 254 250 246 239 236 238 240 237 239 239 218 238 253 277 163 163 170 168 155 132
233 252 269 287 291 290 292 295 297 291 284 281 279 282 278 275 271 262 262 269 265 264 261 254 247 244 239 225 232 235 233 239 238 215 212 224 217 187 155 147 160 149 151
241 275 303 289 294 299 302 291 296 288 283 284 286 284 281 278 272 265 264 270 268 263 263 264 261 250 244 221 220 225 228 230 232 230 198 197 181 180 163 164 163 160 152
303 284 287 290 313 294 291 292 288 286 288 290 286 284 281 276 278 264 254 266 272 274 269 267 260 249 234 227 215 221 224 224 227 237 219 193 183 175 175 176 171 158 169
292 289 313 315 300 293 291 292 291 292 287 287 289 289 297 299 292 295 299 278 278 274 268 262 255 251 237 221 219 220 210 214 224 231 208 198 175 168 178 177 176 171 174
310 330 302 294 292 296 300 297 292 292 299 300 311 306 299 303 303 297 287 280 271 263 258 258 257 248 237 221 218 212 201 205 218 215 210 199 175 166 170 176 177 172 159
320 304 304 301 313 299 307 292 305 307 312 306 308 304 299 299 295 291 295 299 289 282 271 262 249 239 230 222 217 205 196 201 210 211 199 197 160 163 171 168 162 158 140
321 314 309 306 321 310 295 312 304 303 328 316 301 297 300 296 292 296 294 295 289 281 281 271 250 224 213 204 202 190 192 192 202 197 208 181 158 164 166 167 160 158 152
324 327 331 318 317 312 312 308 304 302 306 288 283 276 287 280 290 295 298 294 291 290 283 265 243 205 194 190 189 180 179 186 194 190 194 170 159 167 161 162 160 161 153
348 332 324 297 322 319 323 322 322 324 306 293 292 290 291 286 298 305 302 301 302 304 316 314 335 158 175 177 178 171 172 173 187 186 171 171 165 164 157 158 159 155 152
331 211 329 337 321 325 327 320 335 328 327 324 322 316 309 314 318 312 312 317 330 336 331 325 321 149 167 165 168 162 161 172 186 183 167 169 163 156 159 159 160 155 153
9 10 340 338 319 324 331 341 336 330 324 317 318 320 331 330 320 312 329 340 333 326 328 331 333 323 158 164 164 166 168 169 169 160 166 158 159 158 158 159 155 155 154
52 64 337 337 336 349 347 339 337 332 325 324 328 330 333 336 341 343 339 337 337 334 330 333 342 315 140 130 133 132 133 143 155 154 152 156 160 161 158 156 154 155 160
97 66 42 360 8 359 350 345 338 331 330 331 332 331 324 321 332 339 338 339 342 342 337 337 338 10 123 119 126 129 144 143 147 152 157 157 159 158 161 157 156 161 155
331 76 25 28 25 8 352 346 341 339 338 340 341 339 339 348 351 349 346 345 343 345 345 345 348 1 43 130 128 136 141 145 146 147 148 153 154 154 154 154 156 157 155
53 53 38 56 28 10 1 352 349 350 346 348 349 351 353 355 351 352 351 348 348 354 1 1 2 0 15 46 109 136 138 142 147 148 149 151 152 151 150 150 155 155 158
61 86 55 55 38 16 4 356 354 354 355 359 359 357 357 356 355 356 357 355 360 2 7 12 12 14 13 34 40 48 127 137 142 150 148 151 151 147 149 154 157 161 157
35 83 53 51 40 21 11 10 12 5 5 4 1 2 360 1 6 6 1 2 7 10 13 12 12 18 27 40 47 54 53 53 129 136 146 145 145 146 150 153 154 156 155
59 70 64 61 46 30 22 16 18 9 10 6 6 4 1 360 6 9 8 8 12 15 17 15 17 21 28 31 39 43 46 56 60 62 105 134 141 144 154 153 156 155 156